Location: Cornelius Cemetery
(36.9614°N, 87.6253°W)
Time: 04:03:21
(UTC+00:00)

Daily predictions for brighter satellites

Satellite Brightness Start Highest point End
(mag) Time Altitude Azimuth Time Altitude Azimuth Time Altitude Azimuth
Tiangong 1 2.0 00:07:40 10° SW 00:09:27 30° S 00:09:27 30° S
Cosmos 2369 Rocket 3.7 00:09:00 10° SSE 00:11:27 19° SE 00:11:27 19° SE
Cosmos 1833 Rocket 2.6 00:07:41 10° NNW 00:13:20 88° WSW 00:18:57 10° SSE
Cosmos 2221 Rocket 4.3 00:11:20 10° SSW 00:15:38 53° W 00:19:58 10° N
Nadezhda 4 Rocket 4.0 00:10:36 10° N 00:16:33 52° E 00:22:29 10° SSE
Cosmos 2297 4.4 00:12:20 10° SW 00:17:54 54° WNW 00:23:32 10° NNE
OAO 3 Rocket 3.6 00:15:32 10° WSW 00:20:18 51° SSE 00:21:32 41° ESE
Cosmos 2034 Rocket 4.0 00:14:11 10° S 00:20:33 89° E 00:26:57 10° N
Cosmos 2278 Rocket 4.4 00:17:30 10° WSW 00:21:45 21° NW 00:26:02 10° N
Meteor 2-20 4.3 00:21:46 10° N 00:27:52 82° E 00:33:55 10° S
NOAA 12 4.1 00:23:26 10° SSE 00:28:45 84° WSW 00:34:06 10° NNW
Timation 2 Rocket 4.2 00:22:47 10° NNW 00:29:21 51° ENE 00:31:12 40° ESE
Cosmos 1092 Rocket 4.0 00:28:40 10° N 00:34:38 50° E 00:40:37 10° SSE
ISS -0.9 00:32:17 10° S 00:32:19 10° S 00:32:19 10° S
Cosmos 1441 Rocket 4.0 00:31:18 10° SSW 00:35:10 51° W 00:36:58 27° NNW
BREEZE-M R/B 3.4 00:32:06 10° WNW 00:35:16 59° SW 00:37:03 35° SSE
Okean 2 Rocket 3.8 00:31:05 10° NNW 00:35:31 54° W 00:39:54 10° S
Cosmos 44 Rocket 3.2 00:31:17 10° NNW 00:36:13 87° ENE 00:37:32 50° SSE
GPS 2-05 Rocket1 4.1 00:33:08 10° WSW 00:35:12 36° WSW 00:35:12 36° WSW
Meteor 1-11 Rocket 3.7 00:30:41 10° N 00:36:33 90° W 00:42:14 10° S
Thor Agena Rocket 3.4 00:36:30 63° E 00:36:44 64° ESE 00:41:50 10° S
Cosmos 405 3.8 00:36:27 10° NNW 00:39:57 51° W 00:43:26 10° S
Cosmos 292 Rocket 4.1 00:38:14 10° NNW 00:42:56 63° WSW 00:47:37 10° S
Cosmos 968 Rocket 4.2 00:52:49 10° SW 00:57:50 51° WNW 00:59:38 35° NNW
Cosmos 44 4.1 00:55:15 10° NW 00:59:51 49° WSW 01:01:17 37° SSW
USA 234 3.7 00:58:40 37° NNE 01:01:01 55° NW 01:07:20 10° WSW
Cosmos 2082 Rocket 3.9 00:58:33 10° NW 01:03:30 32° WSW 01:08:25 10° SSW
ALOS 4.2 01:04:54 10° SSW 01:08:55 28° W 01:12:58 10° NW
CZ-4C R/B 3.3 01:35:22 10° NW 01:42:39 59° WSW 01:43:23 57° SW
Cosmos 2369 Rocket 4.3 01:51:30 10° SW 01:53:19 20° SW 01:53:19 20° SW
Atlas Centaur 2 4.3 09:06:46 29° SE 09:06:46 29° SE 09:10:47 10° ESE
USA 229 DEB 4.3 09:29:21 56° ENE 09:29:21 56° ENE 09:36:03 10° SE
USA 229 4.3 09:29:23 56° ENE 09:29:23 56° ENE 09:36:08 10° SE
ATLAS 5 CENTAUR R/B 3.8 09:48:13 22° SE 09:48:57 23° ESE 09:52:42 10° ENE
Hubble Space Telescope 3.2 10:07:10 17° SE 10:07:10 17° SE 10:08:35 10° SE
Cosmos 2233 Rocket 4.3 10:07:05 10° N 10:13:11 64° E 10:19:14 10° SSE
Cosmos 1900 4.5 10:25:04 67° N 10:25:04 67° N 10:29:35 10° NNE
IRS-1C Rocket 3.9 10:20:53 10° NNE 10:26:10 85° WNW 10:31:24 10° SSW
Cosmos 1703 Rocket 4.4 10:24:55 27° NNE 10:26:58 48° E 10:31:08 10° SSE
SL-16 R/B 4.2 10:33:13 14° N 10:33:13 14° N 10:34:04 10° N
Cosmos 1606 3.7 10:31:09 36° NE 10:32:11 45° E 10:35:52 10° SSE
Meteor 2-3 Rocket 4.0 10:35:27 48° NW 10:35:27 48° NW 10:39:55 10° N
Cosmos 1603 3.5 10:32:57 50° SW 10:34:25 73° WNW 10:40:06 10° NNE
Lacrosse 4 Rocket 4.1 10:32:03 10° SSE 10:35:20 21° ESE 10:38:35 10° ENE
Okean-O 3.8 10:32:31 10° NNE 10:36:45 43° E 10:40:58 10° S
USA 32 3.9 10:33:11 10° S 10:38:22 70° W 10:43:37 10° N
Lacrosse 5 rocket 3.7 10:47:19 15° N 10:47:19 15° N 10:48:47 10° NNE
Intercosmos 25 4.1 10:43:16 20° N 10:45:44 60° E 10:50:54 10° SSE
CZ-2C R/B 4.4 10:41:58 10° NE 10:46:29 30° E 10:50:51 10° SSE
COSMO-SKYMED 1 3.5 10:44:58 10° SSE 10:49:07 48° ENE 10:53:18 10° N
Cosmos 1725 Rocket 4.5 10:52:22 35° WSW 10:52:22 35° WSW 10:57:13 10° SSW
Atlas Centaur 2 4.0 10:49:24 23° SW 10:52:24 29° SSW 10:59:22 10° SE
Cosmos 2369 Rocket 2.7 10:47:44 12° NNW 10:52:54 56° ENE 10:58:22 10° SE
CZ-4B R/B 3.6 10:47:55 10° N 10:53:12 42° WNW 10:54:52 34° WSW
NOSS 3-1 (C) 4.0 10:51:32 22° NW 10:57:07 78° WSW 11:05:39 10° SSE
DELTA 2 R/B (1) 3.7 11:01:59 35° W 11:04:15 62° SSW 11:09:45 10° SE
Meteor 1-28 Rocket 3.4 11:03:06 10° S 11:06:42 45° W 11:06:52 44° W
Cosmos 405 Rocket 2.7 11:04:32 13° N 11:07:48 79° E 11:11:35 10° SSE
MTI 3.6 11:05:12 10° S 11:08:22 71° WSW 11:09:12 45° NNW
Cosmos 1782 2.8 11:08:21 28° NNW 11:10:13 55° W 11:14:04 10° S
Okean 1-7 2.9 11:09:09 10° NNW 11:13:30 69° W 11:17:48 10° S
Aureole 3 3.9 11:12:56 10° SSE 11:15:50 42° E 11:18:40 10° NNE
Abrixas rocket 4.3 11:16:56 15° N 11:18:05 18° NNE 11:20:23 10° ENE
SKYMED 3 4.5 11:14:45 10° S 11:19:04 74° WSW 11:23:25 10° NNW
Landsat 4 4.2 11:15:48 10° SSW 11:19:15 37° W 11:20:22 29° WNW
Cosmos 1943 Rocket 2.7 11:13:59 10° NNW 11:19:37 59° ENE 11:25:10 10° SE
Cosmos 2034 Rocket 4.4 11:13:25 10° N 11:19:38 67° E 11:25:45 10° SSE
Feng Yun 1-1 Rocket 4.3 11:14:12 10° N 11:20:04 64° WNW 11:25:51 10° SSW
NOSS 3-1 (A) 4.1 11:16:05 13° NW 11:23:20 73° WSW 11:31:50 10° SSE
Cosmos 968 Rocket 4.0 11:22:59 17° NW 11:26:28 38° W 11:31:16 10° SSW
EO 1 Del DPAF 3.3 11:22:44 10° S 11:26:29 55° W 11:30:16 10° NNW
NOAA 6 4.2 11:24:15 10° N 11:29:10 49° WNW 11:34:03 10° SW
PAYLOAD A 4.1 11:25:00 10° N 11:30:16 69° WNW 11:35:39 10° SSW
ATLAS 5 CENTAUR R/B 2.3 11:29:54 14° WSW 11:33:20 35° NW 11:37:52 10° NNE
Cosmos 1733 Rocket 3.3 11:29:54 10° S 11:34:11 71° E 11:38:32 10° NNE
Cosmos 1943 3.5 11:29:59 10° SW 11:35:22 42° WNW 11:40:45 10° N
SKYMED 2 3.9 11:33:00 10° S 11:37:08 44° W 11:41:18 10° NNW
Tiangong 2 4.3 11:38:51 10° S 11:40:27 13° SE 11:42:04 10° ESE
Cosmos 371 Rocket 4.3 11:37:07 10° S 11:41:46 50° ESE 11:46:26 10° NNE
Shenzhou-11 Module 3.5 11:40:28 10° SW 11:43:17 35° SSE 11:46:05 10° E
Cosmos 1862 3.8 11:40:06 10° SSW 11:43:46 36° W 11:47:27 10° N
Hubble Space Telescope 3.1 11:43:33 10° SW 11:45:51 15° SSW 11:48:10 10° SSE
Cosmos 1464 Rocket 4.2 11:40:35 10° NNW 11:46:40 53° W 11:52:47 10° SSW
USA 215 4.0 11:42:12 10° NE 11:48:37 57° SE 11:54:59 10° SSW
Thor Agena Rocket 3.6 11:46:30 10° SSE 11:51:34 80° ENE 11:56:38 10° N
Genesis I 4.2 11:50:27 10° WSW 11:53:48 27° NW 11:57:12 10° N
